Back to catalog

STARLINK-5881

AliveCommunicationsVLEO
NORAD 57054·PAYLOAD·🇺🇸 United States

Launched Jun 22, 2023 from Vandenberg Space Force Base

Loading…

Next Passes (next 24 hours)

TLE

FreshSource: CelesTrak SupGP

Epoch: Sep 14, 2026, 21:22 UTC

1 57054C 23088G   26257.89076389 -.00038738  00000+0 -14032-2 0  2573
2 57054  42.9994 121.8967 0001166 248.7622  26.5533 15.27596040    13

Track STARLINK-5881 in real time with AllMySat

Download on the App Store